Voltar ao catálogo

COSMOS 1181

AtivoMilitarPO
NORAD 11803·PAYLOAD·🇷🇺 Russia

Lançado May 20, 1980 de Plesetsk Cosmodrome

Loading…

Próximas Passagens (próximas 24 horas)

TLE

AtualizadoSource: Space-Track

Época: Sep 14, 2026, 03:13 UTC

1 11803U 80039A   26257.13469806  .00000062  00000-0  49344-4 0  9998
2 11803  82.9450 149.9999 0022341 355.8297 158.1170 13.74210467322177

Acompanhe COSMOS 1181 em tempo real com AllMySat

Download on the App Store